Weather in Zaranj

Afghanistan     30°57′34″N   61°51′38″E
temp.,
°C
wind,
m/s
gust,
m/s
humid.,
%
clouds,
%
prec.,
mm/h
press.,
hPa
HPBL,
m
20 april, tue
tue2001:30+25nnw7131969 0.0 1008202
04:30+22nnw1017331 0.0 1008366
07:30+24nnw1217280 0.0 1010778
10:30+29nnw1416150 0.0 10101749
13:30+33nnw131490 0.0 10082801
16:30+32nnw121490 0.0 10072859
19:30+29nnw915150 0.0 1008357
22:30+26n1118180 0.0 1009521
21 april, wed
wed2101:30+24nnw1018227 0.0 1009335
04:30+23nw916285 0.0 1011269
07:30+24nw91427100 0.0 1012425
10:30+30nw1011155 0.0 10121140
13:30+34nnw1010125 0.0 10102505
16:30+34nw910110 0.0 10082608
19:30+30nnw59140 0.0 1009114
22:30+27nw57190 0.0 101090
22 april, thu
thu2201:30+25wnw69290 0.0 1011100
04:30+24nw813280 0.0 1011244
07:30+25nw1016250 0.0 1012551
10:30+32nnw1213150 0.0 10121216
13:30+35nnw1111110 0.0 10102407
16:30+35nnw1111115 0.0 10082741
19:30+32nnw1016135 0.0 1009390
22:30+28nnw917170 0.0 1010433
23 april, fri
fri2301:30+25nnw1220230 0.0 1009392
04:30+23nnw1221215 0.0 1009369
07:30+24nnw1218150 0.0 1011532
10:30+31nnw131570 0.0 1010777
13:30+35nnw121360 0.0 10081660
16:30+35nnw121370 0.0 10062226
19:30+31nnw101690 0.0 1007381
22:30+27nw71280 0.0 1008217
24 april, sat
sat2401:30+25nw1016110 0.0 1008390
04:30+23nw813143 0.0 1009219
07:30+24nnw913123 0.0 1010543
10:30+31nnw91064 0.0 1010959
13:30+36nnw7735 0.0 10081525
16:30+36nnw66343 0.0 10061896
19:30+31nw4563 0.0 100735
22:30+28nnw12181410 0.0 1010349